User: anonymous   Login
Location: Baix
(44.7118°N, 4.7648°E)
Time: 17:47:02
(UTC+00:00)
Language:

Cosmos 2285 Rocket - Orbit

View from above orbital plane
View from above orbital plane
View from above satellite
View from above satellite

Ground track
Ground track

The orbit data is extracted from the following two-line orbital elements,

1 23190U 94045B   20297.90126147 -.00000040 +00000-0 -18869-4 0  9999
2 23190 074.0280 233.0378 0020248 290.1689 069.7252 13.74089667315196
Epoch (UTC): 23 October 2020 21:37:48
Eccentricity: 0.0020248
inclination: 74.0280°
perigee height: 970 km
apogee height: 1000 km
right ascension of ascending node: 233.0378°
argument of perigee: 290.1689°
revolutions per day: 13.74089667
mean anomaly at epoch: 69.7252°
orbit number at epoch: 31519

The dashed part of the orbit path shows where the satellite is in the earth's shadow,  

DLR